TimeEST,TemperatureF,Dew PointF,Humidity,Sea Level PressureIn,VisibilityMPH,Wind Direction,Wind SpeedMPH,Gust SpeedMPH,PrecipitationIn,Events,Conditions,WindDirDegrees,DateUTC
12:53 AM,43.0,39.9,89,30.16,2.5,South,6.9,-,N/A,,Clear,170,2012-11-22 05:53:00
1:34 AM,44.6,39.2,81,30.14,3.0,South,5.8,-,N/A,,Clear,170,2012-11-22 06:34:00
1:43 AM,44.6,39.2,81,30.14,2.5,South,5.8,-,N/A,,Clear,170,2012-11-22 06:43:00
1:53 AM,44.1,39.9,85,30.16,2.5,South,4.6,-,N/A,,Clear,180,2012-11-22 06:53:00
2:34 AM,42.8,39.2,87,30.14,3.0,South,5.8,-,N/A,,Clear,180,2012-11-22 07:34:00
2:49 AM,42.8,39.2,87,30.14,2.5,South,5.8,-,N/A,,Clear,180,2012-11-22 07:49:00
2:53 AM,42.1,39.0,89,30.15,2.5,South,5.8,-,N/A,,Clear,180,2012-11-22 07:53:00
3:07 AM,44.6,39.2,81,30.14,3.0,South,6.9,-,N/A,,Clear,190,2012-11-22 08:07:00
3:53 AM,44.1,39.9,85,30.14,3.0,South,6.9,-,N/A,,Clear,190,2012-11-22 08:53:00
4:53 AM,44.1,39.9,85,30.13,3.0,South,6.9,-,N/A,,Clear,190,2012-11-22 09:53:00
5:53 AM,44.1,39.9,85,30.13,3.0,South,9.2,-,N/A,,Clear,180,2012-11-22 10:53:00
6:53 AM,44.1,39.9,85,30.13,3.0,South,8.1,-,N/A,,Clear,190,2012-11-22 11:53:00
7:44 AM,42.8,39.2,87,30.11,2.0,South,6.9,-,N/A,,Clear,180,2012-11-22 12:44:00
7:53 AM,43.0,39.0,86,30.13,2.0,South,6.9,-,N/A,,Clear,180,2012-11-22 12:53:00
8:53 AM,46.0,41.0,83,30.11,2.5,South,8.1,-,N/A,,Haze,190,2012-11-22 13:53:00
9:27 AM,48.2,42.8,82,30.09,3.0,South,15.0,-,N/A,,Haze,190,2012-11-22 14:27:00
9:53 AM,50.0,43.0,77,30.10,3.0,South,16.1,-,N/A,,Haze,190,2012-11-22 14:53:00
10:53 AM,53.1,44.1,71,30.09,3.0,SSW,15.0,-,N/A,,Haze,200,2012-11-22 15:53:00
11:53 AM,57.0,45.0,64,30.06,5.0,SSW,15.0,-,N/A,,Haze,200,2012-11-22 16:53:00
12:53 PM,60.1,43.0,53,30.03,8.0,SSW,17.3,26.5,N/A,,Clear,200,2012-11-22 17:53:00
1:53 PM,60.1,42.1,51,29.99,10.0,SSW,20.7,-,N/A,,Clear,200,2012-11-22 18:53:00
2:53 PM,60.1,41.0,49,29.97,10.0,South,17.3,24.2,N/A,,Clear,190,2012-11-22 19:53:00
3:53 PM,60.1,41.0,49,29.95,10.0,South,15.0,21.9,N/A,,Partly Cloudy,180,2012-11-22 20:53:00
4:53 PM,59.0,41.0,51,29.93,10.0,South,18.4,23.0,N/A,,Mostly Cloudy,180,2012-11-22 21:53:00
5:53 PM,59.0,39.9,49,29.91,10.0,South,15.0,25.3,N/A,,Overcast,180,2012-11-22 22:53:00
6:53 PM,57.0,42.1,57,29.91,10.0,South,15.0,23.0,0.00,Rain,Light Rain,190,2012-11-22 23:53:00
7:53 PM,57.0,39.9,53,29.91,10.0,SSW,13.8,-,0.00,,Overcast,200,2012-11-23 00:53:00
8:53 PM,55.9,39.9,55,29.89,10.0,SSW,16.1,21.9,N/A,,Scattered Clouds,200,2012-11-23 01:53:00
9:53 PM,55.9,41.0,57,29.87,10.0,SSW,17.3,26.5,N/A,,Scattered Clouds,200,2012-11-23 02:53:00
10:53 PM,53.1,45.0,74,29.84,10.0,SSW,16.1,27.6,0.02,,Overcast,210,2012-11-23 03:53:00
11:53 PM,53.1,46.0,77,29.83,9.0,SSW,17.3,28.8,0.00,Rain,Light Rain,210,2012-11-23 04:53:00